Overview Statistics Trail Chart Weather Telemetry Raw packets
 

This is the latest recevied weather packets stored in our database for station/object K9MWD. If no packets are shown the sender has not sent any weather packets the latest 10 day(s).

<< 61 62 63 64 65 66 67 >>
Time Temp. Humidity Pressure Rain* Wind** Luminosity Snow
1788211326 37.22° C 34% 1014.3 hPa 0 mm - 544 W/m² -
1788211024 37.22° C 34% 1014.4 hPa 0 mm - 573 W/m² -
1788210720 36.67° C 34% 1014.5 hPa 0 mm - 601 W/m² -
1788210419 36.67° C 34% 1014.2 hPa 0 mm - 152 W/m² -
1788210116 37.22° C 34% 1014.4 hPa 0 mm - 560 W/m² -
1788209814 37.22° C 33% 1014.5 hPa 0 mm - 644 W/m² -
1788209511 37.22° C 34% 1014.5 hPa 0 mm - 645 W/m² -
1788209211 37.22° C 34% 1014.6 hPa 0 mm - 224 W/m² -
1788208909 36.67° C 34% 1014.8 hPa 0 mm - 664 W/m² -
1788208604 37.78° C 33% 1015 hPa 0 mm - 696 W/m² -
1788208304 38.33° C 33% 1015.2 hPa 0 mm - 703 W/m² -
1788208002 37.22° C 34% 1015.2 hPa 0 mm - 695 W/m² -
1788207698 37.78° C 34% 1015.2 hPa 0 mm - 717 W/m² -
1788207396 37.78° C 33% 1015.3 hPa 0 mm - 741 W/m² -
1788207092 38.33° C 33% 1015.3 hPa 0 mm - 756 W/m² -
1788206788 37.78° C 34% 1015.3 hPa 0 mm - 781 W/m² -
1788206488 37.22° C 35% 1015.3 hPa 0 mm - 815 W/m² -
1788206183 37.22° C 35% 1015.4 hPa 0 mm - 793 W/m² -
1788205878 37.22° C 36% 1015.6 hPa 0 mm - 801 W/m² -
1788205573 36.67° C 37% 1015.6 hPa 0 mm - 826 W/m² -
1788205268 36.11° C 38% 1015.7 hPa 0 mm - 170 W/m² -
1788204963 37.22° C 37% 1015.8 hPa 0 mm - 176 W/m² -
1788204663 37.22° C 36% 1015.8 hPa 0 mm - 878 W/m² -
1788204358 37.22° C 34% 1015.8 hPa 0 mm - 893 W/m² -
1788204054 37.78° C 35% 1016.1 hPa 0 mm - 601 W/m² -

* Rain latest hour (hover to see other rain measurements)
** Current wind speed in m/s (hover to see current wind gust speed)